| time (UTC) | temp F | wind direction | speed MPH | gust MPH | rain 1hr in | rain 24hr in | rain mn in | humidity % | barometer mb |
| 20260506221606 | 68 | 131 | 1.0 | 2.0 | 0.00 | 0.02 | 0.02 | 89 | 1009.6 |
| 20260506220056 | 67 | 120 | 0.0 | 2.0 | 0.00 | 0.02 | 0.02 | 89 | 1009.5 |
| 20260506214554 | 67 | 0 | 1.0 | 3.0 | 0.00 | 0.02 | 0.02 | 89 | 1009.9 |
| 20260506213106 | 67 | 150 | 1.0 | 2.0 | 0.00 | 0.02 | 0.02 | 89 | 1009.5 |
| 20260506211555 | 67 | 112 | 1.0 | 4.0 | 0.00 | 0.02 | 0.02 | 88 | 1009.6 |
| 20260506210104 | 67 | 112 | 1.0 | 2.0 | 0.00 | 0.02 | 0.02 | 89 | 1009.3 |
| 20260506204602 | 67 | 112 | 1.0 | 5.0 | 0.00 | 0.02 | 0.02 | 89 | 1009.6 |
| 20260506203121 | 67 | 131 | 0.0 | 4.0 | 0.00 | 0.02 | 0.02 | 89 | 1009.6 |
| 20260506201556 | 67 | 115 | 1.0 | 5.0 | 0.00 | 0.02 | 0.02 | 89 | 1009.8 |
| 20260506200057 | 67 | 117 | 1.0 | 4.0 | 0.00 | 0.02 | 0.02 | 89 | 1009.7 |
| 20260506194600 | 67 | 136 | 2.0 | 6.0 | 0.00 | 0.02 | 0.02 | 89 | 1010.0 |
| 20260506193104 | 67 | 65 | 2.0 | 5.0 | 0.00 | 0.02 | 0.02 | 90 | 1010.2 |
| 20260506191553 | 67 | 89 | 2.0 | 4.0 | 0.00 | 0.02 | 0.02 | 91 | 1010.9 |
| 20260506190056 | 66 | 106 | 2.0 | 5.0 | 0.00 | 0.02 | 0.02 | 92 | 1010.8 |
| 20260506184554 | 66 | 134 | 2.0 | 8.0 | 0.00 | 0.02 | 0.02 | 91 | 1010.9 |
| 20260506183105 | 66 | 141 | 1.0 | 6.0 | 0.01 | 0.02 | 0.02 | 92 | 1011.1 |
| 20260506181556 | 67 | 138 | 1.0 | 7.0 | 0.02 | 0.02 | 0.02 | 93 | 1011.0 |
| 20260506180058 | 66 | 82 | 2.0 | 7.0 | 0.02 | 0.02 | 0.02 | 95 | 1011.3 |
| 20260506174556 | 65 | 138 | 1.0 | 6.0 | 0.02 | 0.02 | 0.02 | 95 | 1011.3 |
| 20260506173059 | 65 | 147 | 1.0 | 5.0 | 0.01 | 0.01 | 0.01 | 92 | 1011.6 |
| 20260506171550 | 66 | 139 | 2.0 | 10.0 | 0.00 | 0.00 | 0.00 | 91 | 1011.9 |
| 20260506170057 | 66 | 169 | 1.0 | 3.0 | 0.00 | 0.00 | 0.00 | 90 | 1011.9 |
| 20260506164606 | 67 | 124 | 1.0 | 5.0 | 0.00 | 0.00 | 0.00 | 89 | 1012.6 |
| 20260506163101 | 67 | 74 | 2.0 | 8.0 | 0.00 | 0.00 | 0.00 | 88 | 1012.8 |
| 20260506161555 | 67 | 97 | 2.0 | 8.0 | 0.00 | 0.00 | 0.00 | 86 | 1012.9 |
| 20260506160057 | 68 | 82 | 2.0 | 10.0 | 0.00 | 0.00 | 0.00 | 85 | 1012.9 |
| 20260506154554 | 68 | 151 | 3.0 | 13.0 | 0.00 | 0.00 | 0.00 | 86 | 1013.0 |
| 20260506153053 | 68 | 161 | 3.0 | 8.0 | 0.00 | 0.00 | 0.00 | 84 | 1013.1 |
| 20260506151600 | 67 | 124 | 2.0 | 8.0 | 0.00 | 0.00 | 0.00 | 85 | 1013.1 |
| 20260506144555 | 68 | 184 | 2.0 | 9.0 | 0.00 | 0.00 | 0.00 | 84 | 1013.2 |
| 20260506143053 | 69 | 139 | 2.0 | 10.0 | 0.00 | 0.00 | 0.00 | 82 | 1013.3 |
| 20260506141552 | 69 | 86 | 2.0 | 7.0 | 0.00 | 0.00 | 0.00 | 84 | 1013.0 |
| 20260506140052 | 68 | 151 | 2.0 | 5.0 | 0.00 | 0.00 | 0.00 | 85 | 1013.2 |
| 20260506134552 | 67 | 112 | 3.0 | 6.0 | 0.00 | 0.00 | 0.00 | 85 | 1013.3 |
| 20260506133109 | 66 | 136 | 2.0 | 9.0 | 0.00 | 0.00 | 0.00 | 87 | 1013.3 |
| 20260506131608 | 65 | 140 | 3.0 | 10.0 | 0.00 | 0.00 | 0.00 | 88 | 1013.5 |
| 20260506130053 | 65 | 103 | 2.0 | 10.0 | 0.00 | 0.00 | 0.00 | 89 | 1013.5 |
| 20260506124552 | 64 | 162 | 2.0 | 5.0 | 0.00 | 0.00 | 0.00 | 90 | 1013.6 |
| 20260506123052 | 63 | 118 | 2.0 | 5.0 | 0.00 | 0.00 | 0.00 | 91 | 1013.6 |
| 20260506121557 | 63 | 179 | 2.0 | 8.0 | 0.00 | 0.00 | 0.00 | 91 | 1013.6 |
| 20260506120103 | 62 | 156 | 2.0 | 7.0 | 0.00 | 0.00 | 0.00 | 92 | 1013.5 |
| 20260506114553 | 62 | 108 | 2.0 | 8.0 | 0.00 | 0.00 | 0.00 | 92 | 1013.6 |
| 20260506113058 | 62 | 116 | 2.0 | 5.0 | 0.00 | 0.00 | 0.00 | 92 | 1013.4 |
| 20260506111557 | 61 | 140 | 2.0 | 7.0 | 0.00 | 0.00 | 0.00 | 93 | 1013.4 |
| 20260506110101 | 61 | 0 | 1.0 | 5.0 | 0.00 | 0.00 | 0.00 | 94 | 1013.5 |
| 20260506104608 | 60 | 167 | 2.0 | 13.0 | 0.00 | 0.00 | 0.00 | 94 | 1013.5 |
| 20260506103052 | 60 | 122 | 1.0 | 4.0 | 0.00 | 0.00 | 0.00 | 94 | 1013.4 |
| 20260506101552 | 60 | 172 | 1.0 | 6.0 | 0.00 | 0.00 | 0.00 | 95 | 1013.5 |
| 20260506094600 | 60 | 166 | 2.0 | 5.0 | 0.00 | 0.00 | 0.00 | 95 | 1013.5 |
| 20260506093052 | 60 | 179 | 1.0 | 3.0 | 0.00 | 0.00 | 0.00 | 94 | 1013.5 |
| 20260506091549 | 60 | 108 | 1.0 | 6.0 | 0.00 | 0.00 | 0.00 | 94 | 1013.4 |
| 20260506090053 | 60 | 129 | 1.0 | 5.0 | 0.00 | 0.00 | 0.00 | 94 | 1013.5 |
| 20260506084618 | 60 | 131 | 1.0 | 3.0 | 0.00 | 0.00 | 0.00 | 94 | 1013.6 |
| 20260506083053 | 60 | 162 | 1.0 | 3.0 | 0.00 | 0.00 | 0.00 | 94 | 1013.8 |
| 20260506081557 | 60 | 43 | 1.0 | 3.0 | 0.00 | 0.00 | 0.00 | 93 | 1013.8 |
| 20260506080312 | 60 | 129 | 1.0 | 3.0 | 0.00 | 0.00 | 0.00 | 93 | 1013.6 |
| 20260506073058 | 61 | 158 | 2.0 | 4.0 | 0.00 | 0.00 | 0.00 | 93 | 1013.7 |
| 20260506071558 | 61 | 144 | 2.0 | 6.0 | 0.00 | 0.00 | 0.00 | 92 | 1013.6 |
| 20260506061555 | 62 | 124 | 3.0 | 8.0 | 0.00 | 0.00 | 0.00 | 90 | 1014.0 |
| 20260506044553 | 63 | 176 | 2.0 | 11.0 | 0.00 | 0.00 | 0.00 | 87 | 1014.5 |
| 20260506043052 | 63 | 147 | 2.0 | 9.0 | 0.00 | 0.00 | 0.00 | 86 | 1014.4 |
| 20260506041606 | 63 | 18 | 2.0 | 7.0 | 0.00 | 0.00 | 0.00 | 87 | 1014.3 |
| 20260506040058 | 63 | 104 | 2.0 | 6.0 | 0.00 | 0.00 | 0.00 | 87 | 1014.4 |
| 20260506034550 | 63 | 195 | 3.0 | 7.0 | 0.00 | 0.00 | 0.00 | 88 | 1014.4 |
| 20260506033051 | 63 | 130 | 1.0 | 6.0 | 0.00 | 0.00 | 0.00 | 88 | 1014.4 |
| 20260506031557 | 63 | 205 | 1.0 | 4.0 | 0.00 | 0.00 | 0.00 | 88 | 1014.4 |
| 20260506030053 | 63 | 140 | 1.0 | 6.0 | 0.00 | 0.00 | 0.00 | 88 | 1014.5 |
| 20260506024553 | 63 | 0 | 1.0 | 4.0 | 0.00 | 0.00 | 0.00 | 88 | 1014.5 |
| 20260506023106 | 63 | 148 | 2.0 | 5.0 | 0.00 | 0.00 | 0.00 | 88 | 1014.7 |
| 20260506021609 | 63 | 219 | 2.0 | 4.0 | 0.00 | 0.00 | 0.00 | 87 | 1014.7 |
| 20260506020052 | 63 | 86 | 1.0 | 4.0 | 0.00 | 0.00 | 0.00 | 87 | 1014.5 |
| 20260506014553 | 63 | 143 | 1.0 | 4.0 | 0.00 | 0.00 | 0.00 | 86 | 1014.6 |
| 20260506013100 | 63 | 153 | 2.0 | 7.0 | 0.00 | 0.00 | 0.00 | 85 | 1014.4 |
| 20260506011611 | 64 | 164 | 3.0 | 7.0 | 0.00 | 0.00 | 0.00 | 85 | 1014.2 |
| 20260506010058 | 64 | 177 | 2.0 | 11.0 | 0.00 | 0.00 | 0.00 | 84 | 1014.1 |
| 20260506004555 | 64 | 166 | 2.0 | 11.0 | 0.00 | 0.00 | 0.00 | 84 | 1013.9 |
| 20260506003054 | 64 | 217 | 3.0 | 9.0 | 0.00 | 0.00 | 0.00 | 84 | 1013.8 |
| 20260506001555 | 64 | 162 | 2.0 | 7.0 | 0.00 | 0.00 | 0.00 | 85 | 1013.5 |
| 20260506000051 | 64 | 167 | 2.0 | 8.0 | 0.00 | 0.00 | 0.00 | 84 | 1013.5 |
| 20260505234552 | 64 | 129 | 2.0 | 6.0 | 0.00 | 0.00 | 0.00 | 84 | 1013.5 |
| 20260505233100 | 65 | 145 | 3.0 | 9.0 | 0.00 | 0.00 | 0.00 | 84 | 1013.3 |
| 20260505231609 | 65 | 0 | 2.0 | 6.0 | 0.00 | 0.00 | 0.00 | 83 | 1013.2 |
| 20260505230052 | 65 | 155 | 2.0 | 12.0 | 0.00 | 0.00 | 0.00 | 82 | 1013.3 |
| 20260505224556 | 66 | 147 | 4.0 | 9.0 | 0.00 | 0.00 | 0.00 | 81 | 1013.3 |
| 20260505223052 | 67 | 127 | 2.0 | 12.0 | 0.00 | 0.00 | 0.00 | 80 | 1013.1 |